FW7705 Weather Reports


Display with metric or nautical units.
time (UTC)temp
F
wind
direction
speed
MPH
gust
MPH
rain 1hr
in
rain 24hr
in
rain mn
in
humidity
%
barometer
mb
20260904052306 67 73 0.0 0.0 0.00 0.33 0.33 99 1013.7
20260904051759 67 73 0.0 0.0 0.00 0.33 0.33 99 1013.7
20260904051255 67 73 0.0 0.0 0.00 0.33 0.33 99 1013.5
20260904050750 68 73 0.0 1.0 0.00 0.33 0.33 99 1013.6
20260904050246 68 73 0.0 0.0 0.00 0.33 0.33 99 1013.4
20260904045741 68 72 0.0 0.0 0.00 0.33 0.33 99 1013.7
20260904045236 68 73 0.0 0.0 0.07 0.33 0.33 99 1013.7
20260904044730 68 97 0.0 0.0 0.07 0.33 0.33 99 1013.5
20260904044227 68 31 1.0 1.0 0.19 0.33 0.33 99 1014.0
20260904043723 68 20 2.0 2.0 0.24 0.32 0.32 99 1014.0
20260904043219 68 52 3.0 3.0 0.42 0.30 0.30 99 1013.9
20260904042715 68 12 3.0 3.0 0.97 0.28 0.28 99 1014.0
20260904042211 69 34 2.0 2.0 0.94 0.23 0.23 99 1013.9
20260904041710 69 292 4.0 4.0 0.42 0.13 0.13 99 1014.6
20260904041207 69 170 1.0 2.0 0.38 0.07 0.07 99 1014.1
20260904040702 69 34 1.0 1.0 0.66 0.06 0.06 99 1013.9
20260904040158 69 270 2.0 2.0 0.61 0.00 0.00 99 1014.1
20260904035653 69 196 1.0 2.0 0.31 0.26 0.26 99 1014.1
20260904035149 69 77 0.0 0.0 0.35 0.23 0.23 99 1013.6
20260904034647 69 77 1.0 1.0 0.17 0.20 0.20 99 1013.9
20260904034143 69 77 0.0 0.0 0.00 0.17 0.17 99 1013.4
20260904033639 69 77 0.0 0.0 0.00 0.17 0.17 99 1013.3
20260904033136 69 77 0.0 0.0 0.00 0.17 0.17 99 1013.5
20260904032632 69 77 1.0 1.0 0.00 0.17 0.17 99 1013.5
20260904032131 69 77 0.0 0.0 0.00 0.17 0.17 99 1013.5
20260904031630 69 77 0.0 0.0 0.00 0.17 0.17 99 1013.4
20260904031126 69 77 0.0 0.0 0.00 0.17 0.17 99 1013.4
20260904030622 69 77 0.0 1.0 0.00 0.17 0.17 99 1013.7
20260904030117 69 77 0.0 0.0 0.00 0.17 0.17 99 1013.6
20260904025613 69 77 0.0 0.0 0.00 0.17 0.17 99 1013.5
20260904025112 69 77 0.0 1.0 0.00 0.17 0.17 99 1013.6
20260904024608 69 77 0.0 0.0 0.00 0.17 0.17 99 1013.6
20260904024104 69 77 0.0 0.0 0.00 0.17 0.17 99 1013.4
20260904023559 69 77 0.0 1.0 0.00 0.17 0.17 99 1013.5
20260904023056 69 77 0.0 0.0 0.00 0.17 0.17 99 1013.7
20260904022555 69 77 0.0 1.0 0.00 0.17 0.17 99 1013.4
20260904022053 69 77 0.0 0.0 0.00 0.17 0.17 99 1013.7
20260904021548 69 77 0.0 0.0 0.00 0.17 0.17 99 1013.7
20260904021043 69 76 1.0 2.0 0.00 0.17 0.17 99 1013.8
20260904020538 69 80 1.0 1.0 0.00 0.17 0.17 99 1013.8
20260904020033 69 80 1.0 1.0 0.00 0.17 0.17 99 1013.9
20260904015527 69 81 1.0 1.0 0.00 0.17 0.17 99 1014.1
20260904015027 69 81 0.0 0.0 0.00 0.17 0.17 99 1014.0
20260904014526 69 81 0.0 0.0 0.00 0.17 0.17 99 1014.0
20260904014022 69 81 0.0 1.0 0.00 0.17 0.17 99 1014.0
20260904013518 69 81 0.0 0.0 0.00 0.17 0.17 99 1014.3
20260904013015 69 81 0.0 0.0 0.00 0.17 0.17 99 1014.0
20260904012515 69 81 0.0 0.0 0.00 0.17 0.17 99 1014.1
20260904012014 69 81 0.0 0.0 0.00 0.17 0.17 99 1014.0
20260904011508 69 81 0.0 0.0 0.00 0.17 0.17 98 1014.3
20260904011004 69 81 0.0 0.0 0.00 0.17 0.17 98 1014.3
20260904010500 69 81 0.0 1.0 0.00 0.17 0.17 98 1014.1
20260904005955 69 81 0.0 0.0 0.00 0.17 0.17 98 1014.3
20260904005451 69 81 0.0 0.0 0.00 0.17 0.17 98 1014.3
20260904004950 69 81 1.0 1.0 0.00 0.17 0.17 98 1014.1
20260904004447 69 81 0.0 0.0 0.00 0.17 0.17 98 1013.9
20260904003947 69 81 1.0 1.0 0.00 0.17 0.17 98 1014.0
20260904003443 69 81 0.0 0.0 0.00 0.17 0.17 97 1014.0
20260904002938 69 81 0.0 0.0 0.00 0.17 0.17 97 1013.9
20260904002435 70 81 0.0 0.0 0.00 0.17 0.17 97 1013.8
20260904001933 70 81 0.0 0.0 0.00 0.17 0.17 97 1013.9
20260904001430 69 60 3.0 6.0 0.00 0.17 0.17 98 1013.8
20260904000929 69 97 0.0 0.0 0.00 0.17 0.17 97 1013.5
20260904000429 69 97 0.0 0.0 0.00 0.17 0.17 97 1013.6
20260903235924 69 96 1.0 1.0 0.00 0.17 0.17 97 1013.6
20260903235420 69 97 0.0 0.0 0.00 0.17 0.17 97 1013.5
20260903234919 69 97 0.0 1.0 0.00 0.17 0.17 96 1013.7
20260903234415 70 97 2.0 2.0 0.00 0.17 0.17 96 1013.5
20260903233912 70 96 0.0 0.0 0.00 0.17 0.17 95 1013.7
20260903233408 71 97 0.0 1.0 0.00 0.17 0.17 95 1013.8
20260903232907 71 97 0.0 0.0 0.00 0.17 0.17 94 1013.7
20260903232403 71 96 1.0 1.0 0.00 0.17 0.17 93 1013.7
20260903231902 72 35 1.0 1.0 0.00 0.17 0.17 92 1013.8
20260903231357 72 34 1.0 1.0 0.00 0.17 0.17 92 1013.9
20260903230852 72 34 1.0 1.0 0.00 0.17 0.17 92 1013.8
20260903230347 73 34 0.0 0.0 0.00 0.17 0.17 92 1013.8
20260903225844 73 34 0.0 1.0 0.00 0.17 0.17 91 1013.9
20260903225339 73 34 0.0 1.0 0.00 0.17 0.17 90 1013.6
20260903224836 74 33 1.0 1.0 0.00 0.17 0.17 88 1013.8
20260903224331 74 33 0.0 0.0 0.00 0.17 0.17 88 1013.5
20260903223827 75 33 0.0 1.0 0.00 0.17 0.17 87 1013.6
20260903223325 75 357 0.0 0.0 0.00 0.17 0.17 85 1013.7
20260903222821 77 27 10.0 14.0 0.00 0.17 0.17 80 1013.6
20260903222320 78 149 0.0 0.0 0.00 0.17 0.17 81 1013.1
20260903221815 78 151 0.0 0.0 0.00 0.17 0.17 80 1013.2
20260903221314 79 92 1.0 1.0 0.00 0.17 0.17 79 1013.4
20260903220812 79 320 0.0 0.0 0.00 0.17 0.17 77 1013.1
20260903220307 80 131 0.0 1.0 0.00 0.17 0.17 75 1013.1
20260903215804 80 111 1.0 1.0 0.00 0.17 0.17 77 1013.3
20260903215301 80 137 0.0 1.0 0.00 0.17 0.17 77 1013.2
20260903214759 79 154 0.0 0.0 0.00 0.17 0.17 76 1013.2
20260903214255 80 236 1.0 2.0 0.00 0.17 0.17 76 1013.1
20260903213749 80 330 2.0 2.0 0.00 0.17 0.17 77 1013.3
20260903213246 80 345 1.0 1.0 0.00 0.17 0.17 74 1013.3
20260903212741 79 22 2.0 2.0 0.00 0.17 0.17 75 1013.3
20260903212238 79 265 4.0 4.0 0.00 0.17 0.17 77 1013.3
20260903211737 79 341 3.0 3.0 0.00 0.17 0.17 78 1013.3
20260903211234 79 38 1.0 1.0 0.00 0.17 0.17 78 1013.3
20260903210729 78 69 0.0 1.0 0.00 0.17 0.17 79 1013.4
20260903210225 78 91 1.0 2.0 0.00 0.17 0.17 79 1013.4
20260903205724 79 6 1.0 1.0 0.00 0.17 0.17 77 1013.5
20260903205223 79 6 0.0 0.0 0.00 0.17 0.17 78 1013.3
20260903204719 79 26 2.0 2.0 0.00 0.17 0.17 77 1013.5
20260903204215 79 27 0.0 0.0 0.00 0.17 0.17 79 1013.6
20260903203710 78 240 1.0 1.0 0.00 0.17 0.17 80 1013.7
20260903203206 78 239 0.0 0.0 0.00 0.17 0.17 78 1013.8
20260903202705 78 263 1.0 1.0 0.00 0.17 0.17 77 1014.0
20260903202202 78 282 1.0 1.0 0.00 0.17 0.17 77 1013.8
20260903201701 79 249 2.0 2.0 0.00 0.17 0.17 76 1013.8
20260903201156 79 328 3.0 3.0 0.00 0.17 0.17 75 1013.5
20260903200650 78 226 2.0 2.0 0.00 0.17 0.17 77 1013.6
20260903200146 78 251 2.0 3.0 0.00 0.17 0.17 78 1013.8
20260903195642 78 356 2.0 3.0 0.00 0.17 0.17 77 1013.6
20260903195137 78 288 1.0 1.0 0.00 0.17 0.17 77 1013.6
20260903194637 78 320 2.0 2.0 0.00 0.17 0.17 77 1013.7
20260903194137 78 356 1.0 2.0 0.00 0.17 0.17 78 1013.6
20260903193633 78 329 1.0 2.0 0.00 0.17 0.17 76 1013.5
20260903193128 79 289 2.0 2.0 0.00 0.17 0.17 74 1013.6
20260903192625 79 283 2.0 2.0 0.00 0.17 0.17 72 1013.8
20260903192120 80 349 3.0 3.0 0.00 0.17 0.17 72 1013.8
20260903191616 81 319 5.0 6.0 0.00 0.17 0.17 69 1013.6
20260903191110 81 342 3.0 3.0 0.00 0.17 0.17 74 1013.9
20260903190605 80 358 0.0 0.0 0.00 0.17 0.17 75 1014.1
20260903190104 79 320 2.0 2.0 0.00 0.17 0.17 77 1014.3
20260903185600 78 259 1.0 1.0 0.00 0.17 0.17 76 1014.1
20260903185055 79 321 2.0 2.0 0.00 0.17 0.17 77 1014.3
20260903184551 79 329 4.0 4.0 0.00 0.17 0.17 76 1014.3
20260903184046 79 94 0.0 1.0 0.00 0.17 0.17 77 1013.9
20260903183545 79 25 2.0 2.0 0.00 0.17 0.17 73 1014.3
20260903183041 79 4 2.0 2.0 0.00 0.17 0.17 74 1014.1
20260903182539 78 30 2.0 2.0 0.00 0.17 0.17 77 1014.6
20260903182036 78 317 2.0 2.0 0.00 0.17 0.17 76 1014.5
20260903181534 78 298 3.0 3.0 0.00 0.17 0.17 75 1014.5
20260903181034 78 279 3.0 3.0 0.00 0.17 0.17 75 1014.5
20260903180529 79 332 4.0 6.0 0.00 0.17 0.17 73 1014.6
20260903180029 79 344 4.0 6.0 0.00 0.17 0.17 74 1014.4
20260903175527 79 286 5.0 6.0 0.00 0.17 0.17 73 1014.6
20260903175027 81 7 5.0 7.0 0.00 0.17 0.17 71 1014.7
20260903174522 81 132 2.0 3.0 0.00 0.17 0.17 70 1014.3
20260903174017 81 298 4.0 4.0 0.00 0.17 0.17 72 1014.6
20260903173512 80 254 4.0 4.0 0.00 0.17 0.17 78 1014.6
20260903173009 79 288 1.0 2.0 0.00 0.17 0.17 77 1014.5
20260903172509 79 351 3.0 3.0 0.00 0.17 0.17 75 1014.8
20260903172004 79 329 2.0 2.0 0.00 0.17 0.17 77 1014.7
20260903171459 78 178 2.0 2.0 0.00 0.17 0.17 78 1014.5
20260903170954 77 316 2.0 3.0 0.00 0.17 0.17 81 1014.5
20260903170448 77 254 4.0 4.0 0.00 0.17 0.17 80 1014.7
20260903165948 77 320 2.0 2.0 0.00 0.17 0.17 79 1014.7
20260903130609 69 197 1.0 2.0 0.00 0.17 0.17 97 1015.4
20260903125601 69 168 1.0 1.0 0.00 0.17 0.17 98 1015.5
20260903125056 69 212 1.0 2.0 0.00 0.17 0.17 97 1015.4
20260903124556 69 184 1.0 1.0 0.00 0.17 0.17 98 1015.5
20260903124051 68 175 1.0 1.0 0.00 0.17 0.17 99 1015.5
20260903123550 68 173 0.0 0.0 0.00 0.17 0.17 99 1015.5
20260903123049 68 149 0.0 0.0 0.00 0.17 0.17 99 1015.6
20260903122548 68 149 0.0 0.0 0.00 0.17 0.17 99 1015.4
20260903122043 67 149 1.0 1.0 0.00 0.17 0.17 99 1015.6
20260903121542 67 192 1.0 2.0 0.00 0.17 0.17 99 1015.5
20260903121038 67 172 0.0 0.0 0.00 0.17 0.17 99 1015.4
20260903120537 67 172 0.0 0.0 0.00 0.17 0.17 99 1015.2
20260903120032 67 171 1.0 1.0 0.00 0.17 0.17 99 1015.1
20260903115531 66 170 0.0 1.0 0.00 0.17 0.17 99 1015.2
20260903115026 66 136 0.0 0.0 0.00 0.17 0.17 99 1015.1
20260903114521 65 136 0.0 0.0 0.00 0.17 0.17 99 1015.2
20260903114017 65 136 0.0 0.0 0.00 0.17 0.17 99 1015.1
20260903113512 65 136 0.0 0.0 0.00 0.17 0.17 99 1015.0
20260903113009 64 136 0.0 0.0 0.00 0.17 0.17 99 1014.9
20260903112504 64 135 0.0 0.0 0.00 0.17 0.17 99 1014.8
20260903112004 64 135 0.0 0.0 0.00 0.17 0.17 99 1014.8
20260903111502 65 136 0.0 0.0 0.00 0.17 0.17 99 1014.8
20260903110954 65 136 0.0 0.0 0.00 0.17 0.17 99 1014.9
20260903110449 65 146 0.0 0.0 0.07 0.17 0.17 99 1014.7
20260903105948 65 118 0.0 1.0 0.07 0.17 0.17 99 1014.6
20260903105444 65 118 2.0 2.0 0.00 0.16 0.16 99 1014.8
20260903104944 65 137 0.0 0.0 0.00 0.16 0.16 99 1014.8
20260903104443 65 138 1.0 1.0 0.00 0.16 0.16 99 1014.8
20260903103940 65 111 1.0 1.0 0.00 0.16 0.16 99 1014.7
20260903103435 65 110 0.0 0.0 0.00 0.16 0.16 99 1014.7
20260903102931 65 144 0.0 1.0 0.00 0.16 0.16 99 1014.9
20260903102426 65 137 0.0 1.0 0.00 0.16 0.16 99 1014.7
20260903101925 65 157 0.0 1.0 0.00 0.16 0.16 99 1014.7
20260903101420 64 165 0.0 0.0 0.00 0.16 0.16 99 1014.9
20260903100915 64 104 1.0 1.0 0.00 0.16 0.16 99 1014.9
20260903100411 64 136 0.0 0.0 0.00 0.16 0.16 99 1014.8
20260903095908 64 157 0.0 1.0 0.00 0.16 0.16 99 1015.0
20260903095402 64 145 1.0 1.0 0.00 0.16 0.16 99 1015.1
20260903094858 64 124 0.0 0.0 0.00 0.16 0.16 99 1014.9
20260903094357 64 162 1.0 2.0 0.00 0.16 0.16 99 1014.7
20260903093853 64 152 0.0 0.0 0.00 0.16 0.16 99 1015.0
20260903093348 64 152 0.0 0.0 0.00 0.16 0.16 99 1014.8
20260903092844 64 192 1.0 2.0 0.00 0.16 0.16 99 1014.7
20260903092343 64 137 0.0 1.0 0.00 0.16 0.16 99 1014.9
20260903091842 64 113 3.0 3.0 0.00 0.16 0.16 99 1015.0
20260903091342 64 167 1.0 1.0 0.00 0.16 0.16 99 1015.2
20260903090837 64 300 0.0 0.0 0.00 0.16 0.16 99 1015.0
20260903090332 64 300 0.0 0.0 0.00 0.16 0.16 99 1015.1
20260903085830 64 301 0.0 0.0 0.00 0.16 0.16 99 1015.1
20260903085330 64 321 0.0 0.0 0.00 0.16 0.16 99 1014.9
20260903084829 64 321 0.0 0.0 0.00 0.16 0.16 99 1014.8
20260903084328 64 321 0.0 0.0 0.00 0.16 0.16 99 1014.7
20260903083823 64 321 0.0 0.0 0.00 0.16 0.16 99 1014.7
20260903083319 64 170 0.0 0.0 0.00 0.16 0.16 99 1014.7
20260903082818 64 170 0.0 1.0 0.00 0.16 0.16 99 1014.7
20260903082313 64 171 1.0 2.0 0.00 0.16 0.16 99 1014.8
20260903081808 64 129 1.0 1.0 0.12 0.16 0.16 99 1014.9
20260903081304 64 129 0.0 0.0 0.17 0.16 0.16 99 1014.9
20260903080801 64 129 0.0 0.0 0.05 0.14 0.14 99 1014.8
20260903080257 64 128 0.0 0.0 0.00 0.13 0.13 99 1015.0
20260903075756 64 129 1.0 2.0 0.00 0.13 0.13 99 1014.9
20260903075252 64 116 1.0 1.0 0.00 0.13 0.13 99 1014.9
20260903074750 64 126 0.0 0.0 0.00 0.13 0.13 99 1015.1
20260903074246 64 125 0.0 0.0 0.00 0.13 0.13 99 1015.0
20260903073741 64 123 0.0 0.0 0.00 0.13 0.13 99 1014.7
20260903073236 64 162 1.0 1.0 0.00 0.13 0.13 99 1015.2
20260903072732 64 125 0.0 1.0 0.00 0.13 0.13 99 1015.3
20260903072228 64 265 1.0 1.0 0.00 0.13 0.13 99 1015.0
20260903071725 64 206 1.0 2.0 0.00 0.13 0.13 99 1015.0
20260903071221 64 184 3.0 3.0 0.00 0.13 0.13 99 1015.0
20260903070720 64 217 2.0 2.0 0.00 0.13 0.13 99 1015.1
20260903070216 64 89 1.0 2.0 0.00 0.13 0.13 99 1015.1
20260903065712 64 142 0.0 1.0 0.00 0.13 0.13 99 1014.9
20260903065210 64 159 1.0 2.0 0.00 0.13 0.13 99 1015.0
20260903064710 64 179 1.0 1.0 0.00 0.13 0.13 99 1015.0
20260903064205 64 179 0.0 0.0 0.00 0.13 0.13 99 1015.2
20260903063701 64 169 2.0 2.0 0.00 0.13 0.13 99 1015.0
20260903063201 64 193 1.0 1.0 0.00 0.13 0.13 99 1015.1
20260903062657 65 199 0.0 1.0 0.00 0.13 0.13 99 1015.1
20260903062152 65 118 1.0 2.0 0.00 0.13 0.13 99 1015.3
20260903061648 65 304 2.0 2.0 0.00 0.13 0.13 99 1015.3
20260903061146 65 123 2.0 2.0 0.00 0.13 0.13 99 1015.3
20260903060642 65 355 2.0 3.0 0.00 0.13 0.13 99 1015.3
20260903060137 65 205 2.0 2.0 0.00 0.13 0.13 99 1015.4
20260903055634 65 127 0.0 0.0 0.00 0.13 0.13 99 1015.3
20260903055133 65 237 2.0 2.0 0.00 0.13 0.13 99 1015.7
20260903054628 65 279 2.0 2.0 0.00 0.13 0.13 99 1015.6
20260903054123 65 74 0.0 0.0 0.00 0.13 0.13 99 1015.5
20260903053619 65 80 0.0 1.0 0.00 0.13 0.13 99 1015.3
20260903053115 65 152 0.0 1.0 0.00 0.13 0.13 99 1015.4
20260903052611 65 105 2.0 3.0 0.00 0.13 0.13 99 1015.3